Racecast

Lailah Coleman

Legion of Zoom Track Club (VA) · 11 · Compare head to head

Athlete rating 101.9
Best race 100.6 TF
Races 34
Seasons 2 2025 — 2026
Speed rating — all races

Track & Field

TF speed rating

2026 TF 98.3

Legion of Zoom Track Club (VA) · Grade 11

Date Meet Event Result Place Rating Difficulty PR/SR Flags
2026-06-20 Legacy Juneteenth Track Showcase 200m 30.53 11th · 2nd on team -0.027
2026-06-20 Legacy Juneteenth Track Showcase 400m 1:10.27 6th · 3rd on team -0.027
2026-05-30 Va Beach Flames Invite 400m 1:06.99 10th · 1st on team -0.023 ★PR SR
2026-05-30 Va Beach Flames Invite 100m 14.59 21st · 2nd on team -0.023 ★PR SR
2026-05-24 HR Hurricanes CAT 5 Invite 400m 1:08.32 10th · 2nd on team -0.035 PR SR
2026-05-24 HR Hurricanes CAT 5 Invite 200m 29.85 14th · 2nd on team -0.035 ★PR SR
2026-05-09 VA "Legends" T & F Youth Invite 400m 1:12.48 22nd · 3rd on team -0.033
2026-05-09 VA "Legends" T & F Youth Invite 100m 15.3 24th · 2nd on team -0.033 PR SR
2026-05-03 Queen Harrison Track Classic - -Youth Section 800m 3:02.03 6th · 3rd on team 100.6 -0.033 ★PR ★R SR RSR
2026-05-03 Queen Harrison Track Classic - -Youth Section 400m 1:10.38 5th · 2nd on team -0.033
2026-04-26 Virginia Pride Spring Kick-Off 800m 3:11.61 14th · 2nd on team 95.9 -0.029 PR R SR RSR
2026-04-26 Virginia Pride Spring Kick-Off 200m 31.56 27th · 2nd on team -0.029
2026-04-26 Virginia Pride Spring Kick-Off 400m 1:10.01 12th · 2nd on team -0.029 PR SR
2026-03-06 AAU Indoor National Championship 400m 1:11.97 30th · 2nd on team -0.036 PR SR
2026-03-06 AAU Indoor National Championship 200m 30.79 53rd · 1st on team -0.036 PR SR
2026-02-22 3rd Annual HRH Winter Storm Classic 200m 31.17 22nd · 1st on team -0.024 PR SR
2026-02-22 3rd Annual HRH Winter Storm Classic 55m 8.43 21st · 1st on team -0.024 ★PR SR
2026-01-17 BWSP Queens and Kings - Meet 2 200m 31.18 11th · 2nd on team -0.024 PR SR
2026-01-17 BWSP Queens and Kings - Meet 2 55m 8.57 16th · 1st on team -0.024
2026-01-03 BWSP Queens and Kings - Meet 1 400m 1:13.11 5th · 2nd on team -0.024 PR SR
2026-01-03 BWSP Queens and Kings - Meet 1 200m 32.38 14th · 1st on team -0.024
2025-12-20 2025 Howard White Holiday Track Classic 55m 8.55 15th · 1st on team -0.024 PR SR
2025-12-20 2025 Howard White Holiday Track Classic 400m 1:15.61 13th · 3rd on team -0.024 PR SR
2025-12-20 2025 Howard White Holiday Track Classic 200m 32.36 16th · 2nd on team -0.024 PR SR

2025 TF

Legion of Zoom Track Club (VA) · Grade 10

Date Meet Event Result Place Rating Difficulty PR/SR Flags
2025-07-12 Cannonball Cooper Invite 100m 15.78 21st · 2nd on team -0.027
2025-06-21 LEGACY Juneteenth Track Showcase 100m 15.64 25th · 1st on team -0.029 PR SR
2025-06-21 LEGACY Juneteenth Track Showcase 200m 32.88 14th · 1st on team -0.029 PR SR
2025-06-07 Darius Dixon Invite 200m 35.1 15th · 2nd on team -0.032 PR SR
2025-06-07 Darius Dixon Invite 400m 1:23.18 24th · 4th on team -0.032 PR SR
2025-05-31 Va Beach Flames Invite 200m 35.47 54th · 4th on team -0.023 PR SR
2025-05-31 Va Beach Flames Invite 100m 16.6 46th · 2nd on team -0.023 PR SR
2025-05-04 Queen Harrison Youth Invite 200m 37.69 29th · 5th on team -0.033 PR SR
2025-05-04 Queen Harrison Youth Invite 400m 1:42.64 28th · 5th on team -0.033 PR SR
2025-05-04 Queen Harrison Youth Invite 100m 18 30th · 3rd on team -0.033 PR SR